[[{"header":{"parameterUnit":"m.s-1","parameterCategory":1,"la1":30.2991,"la2":30.254,"lo1":-89.0895,"lo2":-89.0444,"dy":0.0017,"dx":0.0017,"nx":28,"ny":28,"refTime":"2024-07-24T09:00:00:Z","depth":0,"parameterNumber":2,"parameterNumberName":"U-component_of_WINDS"},"data":[0,0,0,0,0,0,0,0,0,0,0,0,0,0,0,0,0,0,0,0,0,0,0,0,0,0,0,0,0,0,0,0,0,0,0,0,0,0,0,0,0,0,0,0,0,0,0,0,0,0,0,0,0,0,0,0,0,0,0.0838,0.0839,0,0.0947,0.0948,0.0949,0.1003,0.1003,0.1003,0.1003,0.1115,0.1117,0.112,0,0,0,0,0,0,0,0,0,0,0,0,0,0.0677,0.068,0.0838,0.084,0.0841,0.0946,0.0948,0.0949,0.1003,0.1003,0.1003,0.1003,0.1114,0.1117,0.1121,0,0,0,0,0,0,0,0,0,0,0,0,0,0.0763,0.0681,0.0838,0.088,0.0885,0.0946,0.0948,0.095,0.1003,0.1003,0.1003,0.1003,0.1112,0.1117,0.1121,0.1149,0,0,0.1135,0.1137,0,0,0,0,0,0,0,0,0.0758,0.0768,0.0873,0.0877,0.0883,0.0961,0.0932,0.1016,0.1003,0.0958,0.1003,0.1003,0.1064,0.1072,0.1092,0.1154,0.1159,0.1135,0.1138,0.114,0.1141,0,0,0,0,0,0,0,0.0752,0.0764,0.0881,0.0874,0.088,0.0894,0.0906,0.0948,0.101,0.0962,0.0966,0.0978,0.1066,0.1088,0.1095,0.116,0.1135,0.1139,0.1142,0.1144,0.1249,0.1249,0,0,0,0,0,0,0.0739,0.0759,0.0878,0.0884,0.0819,0.0897,0.091,0.0936,0.1009,0.102,0.0978,0.098,0.108,0.109,0.11,0.1136,0.114,0.1144,0.1147,0.1249,0.1249,0.1249,0,0,0,0,0,0,0.0735,0.0749,0.0873,0.0823,0.084,0.0899,0.0928,0.0938,0.096,0.1021,0.1033,0.0989,0.1081,0.1093,0.1136,0.1141,0.1146,0.115,0.1249,0.1249,0.1249,0.121,0,0,0,0,0,0,0.073,0.0747,0.0759,0.0823,0.0842,0.0908,0.0928,0.094,0.0967,0.0971,0.1035,0.1045,0.1082,0.1129,0.114,0.1147,0.1153,0.1248,0.1249,0.1249,0.1211,0.1208,0.1206,0,0,0,0,0,0.0724,0.0743,0.0759,0.0773,0.0857,0.0908,0.0919,0.0961,0.0968,0.0979,0.1018,0.1043,0.1138,0.1133,0.1146,0.1154,0.1248,0.1249,0.1249,0.1212,0.1209,0.1206,0,0,0,0,0,0,0.0679,0.0753,0.0771,0.0811,0.0852,0.0917,0.0933,0.0956,0.0997,0.0999,0.105,0.1063,0.1101,0.1132,0.1125,0.1184,0.1196,0.1199,0.1163,0.1161,0.1158,0.115,0.1157,0,0,0,0,0,0.0673,0.0708,0.0771,0.08,0.082,0.0873,0.0896,0.0925,0.097,0.0988,0.1031,0.1074,0.1114,0.1139,0.1179,0.1215,0.123,0.1227,0.1225,0.1223,0.1225,0.1246,0.1246,0.125,0.125,0.125,0,0,0.0663,0.0707,0.0726,0.0792,0.0828,0.0863,0.0887,0.0923,0.095,0.0994,0.1036,0.1069,0.112,0.116,0.1179,0.1187,0.1227,0.1223,0.1221,0.1225,0.1246,0.1246,0.1245,0.125,0.125,0.125,0,0,0.0661,0.0698,0.0727,0.0762,0.0815,0.085,0.0856,0.0917,0.094,0.0983,0.1017,0.1049,0.1116,0.1152,0.1178,0.1188,0.1212,0.12,0.1189,0.1209,0.1208,0.1208,0.1212,0.1212,0.1202,0.1202,0.1201,0,0.0641,0.0695,0.0738,0.0772,0.08,0.0841,0.087,0.0902,0.0965,0.0984,0.0991,0.1076,0.1113,0.1161,0.1163,0.1184,0.1193,0.1193,0.1205,0.1205,0.1206,0.121,0.1211,0.12,0.12,0.12,0.12,0,0.0668,0.0704,0.0721,0.0781,0.081,0.0842,0.0889,0.0914,0.0939,0.0973,0.1016,0.1063,0.1112,0.1126,0.1151,0.1177,0.118,0.1195,0.1208,0.1203,0.1207,0.1209,0.1197,0.1198,0.1198,0.1199,0,0,0.0641,0.0724,0.0729,0.0757,0.0818,0.0847,0.088,0.0928,0.0948,0.0991,0.1019,0.1075,0.1089,0.1119,0.1149,0.1166,0.1171,0.1179,0.1181,0.1176,0.1201,0.1189,0.1191,0.1186,0.1187,0.1187,0.1197,0,0.0648,0.0709,0.0748,0.0793,0.0827,0.0866,0.0894,0.0935,0.0967,0.1,0.1036,0.1074,0.109,0.1109,0.1127,0.1166,0.1176,0.1166,0.1214,0.1215,0.12,0.1193,0.1181,0.1188,0.1199,0.1199,0.12,0,0.0665,0.0705,0.0753,0.081,0.0826,0.0851,0.0898,0.0929,0.0976,0.0998,0.1031,0.1061,0.1096,0.1105,0.1155,0.1147,0.1169,0.1191,0.1192,0.1198,0.1207,0.1199,0.1191,0.1192,0.1203,0.1203,0.1202,0,0.0641,0.0707,0.0744,0.0767,0.0834,0.085,0.0879,0.0926,0.0952,0.0993,0.101,0.1055,0.1079,0.1113,0.1154,0.1156,0.1199,0.1212,0.1219,0.1217,0.1226,0.1225,0.1222,0.124,0.124,0.124,0.124,0,0.0644,0.0672,0.0734,0.0757,0.0789,0.0834,0.0865,0.0897,0.0937,0.0967,0.1003,0.103,0.1082,0.1116,0.1148,0.1184,0.1195,0.1214,0.1222,0.1211,0.1208,0.1226,0.1226,0.124,0.124,0.124,0.124,0,0.0623,0.0666,0.0709,0.0769,0.0784,0.0805,0.0856,0.088,0.0913,0.095,0.0961,0.1014,0.1055,0.1099,0.1155,0.1177,0.1211,0.1223,0.1195,0.12,0.1204,0.1203,0.1212,0.1216,0.1231,0.1231,0.123,0,0.0623,0.0645,0.0707,0.0729,0.0757,0.0792,0.0819,0.0863,0.0889,0.0943,0.096,0.1004,0.1041,0.1105,0.1148,0.1191,0.1204,0.1204,0.1211,0.1198,0.1204,0.1202,0.1204,0.1202,0.1202,0.1201,0.1201,0,0.0618,0.0638,0.0675,0.0718,0.0749,0.0786,0.0824,0.084,0.0892,0.0919,0.0961,0.099,0.1047,0.109,0.1137,0.1167,0.1193,0.1198,0.1202,0.1191,0.1174,0.1183,0.119,0.1198,0.1198,0.1199,0.1199,0.1199,0.0608,0.0629,0.0675,0.0715,0.0748,0.0782,0.0807,0.0843,0.0879,0.0928,0.0952,0.0994,0.1039,0.1106,0.1135,0.1168,0.1176,0.1182,0.1183,0.1184,0.1181,0.1168,0.1177,0.1177,0.1177,0.1178,0.1178,0,0.0605,0.0636,0.0672,0.0724,0.0754,0.0775,0.0818,0.0842,0.0879,0.0918,0.0954,0.1002,0.1043,0.1089,0.1133,0.1151,0.1163,0.1161,0.116,0.1166,0.1171,0.1164,0.115,0.115,0.115,0.115,0.115,0.115,0.0607,0.0643,0.0668,0.0722,0.0753,0.0794,0.0817,0.0848,0.088,0.0932,0.0966,0.0995,0.1038,0.1085,0.1123,0.1136,0.115,0.1144,0.116,0.1164,0.1166,0.1168,0.1161,0.1147,0.1147,0.1152,0.1152,0.1152]},{"header":{"parameterUnit":"m.s-1","parameterCategory":1,"la1":30.2991,"la2":30.254,"lo1":-89.0895,"lo2":-89.0444,"dy":0.0017,"dx":0.0017,"nx":28,"ny":28,"refTime":"2024-07-24T09:00:00:Z","depth":0,"parameterNumber":3,"parameterNumberName":"V-component_of_WINDS"},"data":[0,0,0,0,0,0,0,0,0,0,0,0,0,0,0,0,0,0,0,0,0,0,0,0,0,0,0,0,0,0,0,0,0,0,0,0,0,0,0,0,0,0,0,0,0,0,0,0,0,0,0,0,0,0,0,0,0,0,2.9827,2.9827,0,2.9793,2.9792,2.9792,2.9754,2.9753,2.9753,2.9752,2.9715,2.9714,2.9714,0,0,0,0,0,0,0,0,0,0,0,0,0,2.9858,2.9858,2.9827,2.9827,2.9826,2.9793,2.9792,2.9792,2.9754,2.9753,2.9753,2.9752,2.9715,2.9715,2.9714,0,0,0,0,0,0,0,0,0,0,0,0,0,2.9836,2.9858,2.9827,2.9803,2.9801,2.9793,2.9792,2.9792,2.9754,2.9753,2.9753,2.9752,2.9715,2.9715,2.9714,2.9726,0,0,2.9712,2.9711,0,0,0,0,0,0,0,0,2.9838,2.9835,2.9807,2.9805,2.9802,2.9777,2.9789,2.9769,2.9754,2.9772,2.9752,2.9751,2.9736,2.9734,2.9729,2.9724,2.9722,2.9712,2.9711,2.9711,2.9711,0,0,0,0,0,0,0,2.9839,2.9836,2.9813,2.9807,2.9804,2.9794,2.979,2.9785,2.9759,2.977,2.9768,2.9764,2.9734,2.973,2.9728,2.9722,2.9712,2.9711,2.971,2.971,2.9724,2.9725,0,0,0,0,0,0,2.9845,2.9838,2.9814,2.9812,2.9818,2.9794,2.9789,2.9786,2.9759,2.9754,2.9765,2.9762,2.9731,2.9729,2.9726,2.9738,2.9711,2.971,2.971,2.9723,2.9724,2.9725,0,0,0,0,0,0,2.9845,2.9843,2.9816,2.9824,2.982,2.9794,2.979,2.9785,2.9781,2.9755,2.975,2.9765,2.9731,2.9727,2.9726,2.9736,2.971,2.9709,2.9722,2.9723,2.9725,2.9761,0,0,0,0,0,0,2.9846,2.9843,2.9848,2.9825,2.982,2.9817,2.9791,2.9785,2.978,2.9776,2.9753,2.9749,2.973,2.9727,2.9725,2.9734,2.9708,2.9721,2.9723,2.9724,2.9759,2.9764,2.9767,0,0,0,0,0,2.9848,2.9859,2.9848,2.9846,2.9825,2.9818,2.9815,2.9793,2.9781,2.9785,2.9768,2.9749,2.9735,2.9728,2.9725,2.9734,2.972,2.9722,2.9724,2.9757,2.9763,2.9767,0,0,0,0,0,0,2.9883,2.9856,2.9843,2.9848,2.9836,2.9811,2.9816,2.98,2.979,2.9787,2.976,2.9755,2.9757,2.9745,2.9737,2.9744,2.9725,2.9727,2.9751,2.9756,2.976,2.9763,2.9708,0,0,0,0,0,2.9892,2.9889,2.9864,2.9871,2.9865,2.9842,2.9838,2.9822,2.9808,2.9802,2.9785,2.9772,2.9764,2.976,2.9751,2.9757,2.9751,2.9762,2.9766,2.977,2.9771,2.9773,2.9778,2.9731,2.9731,2.9731,0,0,2.9909,2.9894,2.9893,2.9877,2.9866,2.9863,2.9837,2.9835,2.9832,2.9801,2.9799,2.9787,2.977,2.9772,2.9772,2.9762,2.9783,2.9772,2.9775,2.9775,2.9776,2.978,2.9784,2.9732,2.9732,2.9732,0,0,2.9939,2.9927,2.9931,2.992,2.9904,2.9888,2.9889,2.9867,2.9858,2.9856,2.9833,2.9828,2.9816,2.9805,2.9797,2.9823,2.9806,2.9821,2.9843,2.9845,2.9849,2.9852,2.9861,2.9864,2.9823,2.9823,2.9823,0,2.9962,2.9957,2.9935,2.9934,2.9927,2.9901,2.9904,2.9894,2.9876,2.9871,2.9861,2.9845,2.9831,2.9831,2.9837,2.9832,2.9832,2.9823,2.985,2.9853,2.9856,2.9864,2.9867,2.9825,2.9825,2.9824,2.9824,0,2.9986,2.9983,2.9988,2.9971,2.9965,2.9967,2.9944,2.9941,2.9926,2.9911,2.9909,2.9892,2.988,2.9879,2.9864,2.9876,2.987,2.9856,2.9836,2.9863,2.987,2.9873,2.9828,2.9827,2.9826,2.9826,0,0,3.0036,3.0008,3.001,3.0002,2.9982,2.9979,2.9979,2.9968,2.9965,2.9953,2.9952,2.9942,2.9929,2.992,2.9904,2.9906,2.9927,2.9891,2.989,2.9898,2.9939,2.995,2.9954,2.9916,2.9916,2.9917,2.994,0,3.0062,3.0061,3.0041,3.0045,3.0042,3.0017,3.0016,3.0004,2.999,2.9985,2.9969,2.9963,2.9945,2.994,2.9941,2.9925,2.9935,2.9923,2.9913,2.9913,2.9918,2.9957,2.9969,2.9992,2.9943,2.9943,2.9944,0,3.0092,3.0082,3.0086,3.0066,3.0064,3.0064,3.0052,3.0048,3.0033,3.0023,3.0014,2.9996,2.9993,2.9976,2.9972,2.9964,2.9959,2.9951,2.9951,2.9949,2.993,2.9956,2.9999,3.0002,2.9948,2.9947,2.9947,0,3.0127,3.0116,3.0117,3.0111,3.0087,3.0088,3.0078,3.0063,3.0057,3.0047,3.0043,3.0032,3.0026,3.0017,2.9997,2.9986,2.9995,2.9976,2.9986,2.9986,2.9988,2.9988,3.003,2.9986,2.9986,2.9986,2.9986,0,3.0158,3.0161,3.0132,3.0133,3.0136,3.0113,3.0116,3.0104,3.009,3.0087,3.0065,3.0062,3.0036,3.003,3.0014,3.0013,3.001,3.0001,2.9997,3.0003,3.0004,2.9999,2.9996,2.9987,2.9987,2.9987,2.9986,0,3.0198,3.0179,3.0178,3.0156,3.0151,3.0154,3.0135,3.0134,3.012,3.0117,3.0114,3.0091,3.0083,3.0062,3.0049,3.0038,3.0041,3.0033,3.0046,3.0043,3.0054,3.0054,3.0094,3.0098,3.0052,3.0053,3.0053,0,3.0218,3.022,3.0199,3.0196,3.0187,3.0182,3.0177,3.0155,3.015,3.0133,3.0134,3.0125,3.0116,3.0105,3.0086,3.0076,3.0067,3.0082,3.0065,3.0071,3.0067,3.0066,3.0066,3.0086,3.0086,3.0087,3.0087,0,3.0256,3.0246,3.024,3.023,3.0224,3.0216,3.0205,3.0204,3.0179,3.0174,3.0167,3.016,3.0147,3.0138,3.0124,3.0113,3.0096,3.0093,3.0094,3.01,3.0108,3.0103,3.0056,3.0092,3.0091,3.0091,3.0091,3.009,3.0286,3.0286,3.0272,3.0265,3.0255,3.0247,3.0245,3.023,3.0224,3.0212,3.0199,3.0193,3.0177,3.0158,3.0148,3.0143,3.0133,3.0136,3.0136,3.0137,3.014,3.011,3.014,3.014,3.014,3.014,3.0139,0,3.0322,3.0311,3.0306,3.0293,3.0287,3.0273,3.0261,3.0257,3.0252,3.024,3.0232,3.0223,3.0214,3.0195,3.0184,3.0183,3.0175,3.0181,3.0181,3.0178,3.0149,3.0148,3.0188,3.0188,3.0188,3.0188,3.0188,3.0188,3.034,3.034,3.0329,3.0325,3.0314,3.0308,3.0303,3.0294,3.0284,3.0275,3.0268,3.0256,3.0241,3.0229,3.022,3.0215,3.0211,3.022,3.0212,3.0185,3.018,3.0176,3.0175,3.022,3.022,3.0242,3.0242,3.0242]}]]